Gold Coast Seaway Observation History
Time Wind Speed Temp Pressure Rel. Hum Rain
21/09:00pm NW 4-5 kts 23.7°c 1009.6 hPa 81% 0.2mm
21/08:30pm N 6-9 kts 24.7°c 1009.0 hPa 79% 0.2mm
21/08:00pm N 11-15 kts 25.8°c 1008.3 hPa 79% 0.2mm
21/07:30pm NNW 11-15 kts 26.6°c 1008.6 hPa 69% 0.2mm
21/07:00pm N 13-15 kts 25.2°c 1009.1 hPa 68% 0.2mm
21/06:30pm W 8-13 kts 25.1°c 1008.7 hPa 64% 0.2mm
21/06:00pm W 12-17 kts 24.6°c 1007.5 hPa 70% 0.2mm
21/05:30pm N 15-22 kts 25.2°c 1006.0 hPa 71% 0.2mm
21/05:00pm NNW 12-20 kts 28.0°c 1007.2 hPa 67% 0.0mm
21/04:30pm N 17-19 kts 25.3°c 1006.9 hPa 82% 0.0mm
21/04:00pm N 16-19 kts 26.4°c 1005.8 hPa 75% 0.0mm
21/03:30pm N 16-19 kts 27.4°c 1006.1 hPa 75% 0.0mm
21/03:00pm N 15-17 kts 27.5°c 1006.4 hPa 73% 0.0mm
21/02:30pm N 15-17 kts 27.5°c 1006.8 hPa 75% 0.0mm
21/02:00pm N 15-17 kts 27.5°c 1007.2 hPa 72% 0.0mm
21/01:30pm NNE 16-19 kts 28.2°c 1007.4 hPa 73% 0.0mm
21/01:00pm NNE 18-21 kts 28.6°c 1007.8 hPa 71% 0.0mm
21/12:30pm NNE 17-20 kts 28.9°c 1008.1 hPa 70% 0.0mm
21/12:00pm N 12-16 kts 27.8°c 1008.6 hPa 73% 0.0mm
21/11:30am NNE 17-19 kts 28.4°c 1008.7 hPa 69% 0.0mm
21/11:00am NNE 14-16 kts 28.7°c 1009.1 hPa 67% 0.0mm
21/10:30am NNE 13-15 kts 28.8°c 1009.3 hPa 64% 0.0mm
21/10:00am NNW 12-17 kts 30.5°c 1009.4 hPa 47% 0.0mm
21/09:30am NNW 13-17 kts 29.5°c 1009.6 hPa 51% 0.0mm
21/09:00am N 10-14 kts 28.9°c 1009.6 hPa 62% 1.2mm
21/08:30am NNW 8-13 kts 27.5°c 1009.3 hPa 73% 1.2mm
21/08:00am N 8-12 kts 27.1°c 1009.5 hPa 77% 1.2mm
21/07:30am N 7-10 kts 26.7°c 1009.4 hPa 78% 1.2mm
21/07:00am NNW 7-10 kts 25.8°c 1009.5 hPa 84% 1.2mm
21/06:30am WNW 6-8 kts 25.6°c 1009.3 hPa 86% 1.2mm
21/06:00am NNW 6-8 kts 25.4°c 1008.7 hPa 85% 1.2mm
21/05:30am NNW 7-10 kts 25.5°c 1008.4 hPa 85% 1.2mm
21/05:00am NNW 7-9 kts 25.6°c 1008.5 hPa 85% 1.2mm
21/04:30am NNW 8-11 kts 25.8°c 1008.2 hPa 84% 1.2mm
21/04:00am NNW 7-9 kts 26.0°c 1008.0 hPa 85% 1.2mm
21/03:30am N 7-9 kts 26.1°c 1007.6 hPa 85% 1.2mm
21/03:00am NNW 9-14 kts 26.2°c 1007.6 hPa 84% 1.2mm
21/02:30am NNW 8-14 kts 25.8°c 1007.6 hPa 88% 1.2mm
21/02:00am N 7-8 kts 24.3°c 1007.8 hPa 87% 1.2mm
21/01:30am N 5-7 kts 23.6°c 1008.1 hPa 86% 1.2mm
21/01:00am CALM 0 kts 23.3°c 1008.1 hPa 82% 1.2mm
21/12:30am NW 4-5 kts 24.5°c 1008.3 hPa 81% 1.2mm
21/12:00am NW 5-7 kts 25.2°c 1008.7 hPa 82% 1.2mm
Time Wind Speed Temp Pressure Rel. Hum Rain
20/11:30pm NNW 6-7 kts 25.1°c 1009.1 hPa 83% 1.2mm
20/11:00pm NW 4-6 kts 24.5°c 1009.3 hPa 83% 1.2mm
20/10:30pm WNW 6-7 kts 24.5°c 1009.3 hPa 80% 1.2mm
20/10:00pm NW 6-7 kts 24.4°c 1009.4 hPa 80% 1.2mm
20/09:30pm N 7-9 kts 24.5°c 1009.3 hPa 79% 1.2mm
20/09:00pm NW 6-8 kts 24.8°c 1009.3 hPa 77% 1.2mm
20/08:30pm NW 7-9 kts 24.3°c 1008.6 hPa 77% 1.2mm
20/08:00pm N 5-8 kts 23.6°c 1008.4 hPa 79% 1.2mm
20/07:30pm NW 5-8 kts 24.1°c 1007.7 hPa 78% 1.2mm
20/07:00pm N 6-9 kts 23.9°c 1007.4 hPa 78% 1.2mm
20/06:30pm N 11-15 kts 23.7°c 1007.4 hPa 82% 1.2mm
20/06:00pm N 13-16 kts 24.2°c 1006.7 hPa 87% 1.2mm
20/05:30pm N 7-12 kts 24.5°c 1006.3 hPa 85% 1.2mm
20/05:00pm NE 10-12 kts 24.3°c 1006.3 hPa 82% 1.2mm
20/04:30pm NW 16-23 kts 24.7°c 1006.8 hPa 76% 0.6mm
20/04:00pm N 14-16 kts 24.9°c 1005.7 hPa 84% 0.0mm
20/03:30pm N 15-18 kts 25.4°c 1004.6 hPa 83% 0.0mm
20/03:00pm N 17-20 kts 25.8°c 1005.1 hPa 80% 0.0mm
20/02:30pm NNE 19-21 kts 28.2°c 1005.2 hPa 74% 0.0mm
20/02:00pm N 17-20 kts 27.7°c 1005.5 hPa 75% 0.0mm
20/01:30pm NNE 17-20 kts 28.7°c 1006.0 hPa 71% 0.0mm
20/01:00pm NNE 17-20 kts 28.3°c 1006.4 hPa 75% 0.0mm
20/12:30pm NNE 18-21 kts 27.9°c 1006.7 hPa 73% 0.0mm
20/12:00pm NNE 17-19 kts 28.4°c 1007.0 hPa 72% 0.0mm
20/11:30am N 14-18 kts 29.4°c 1007.2 hPa 65% 0.0mm
20/11:00am N 15-19 kts 30.2°c 1007.6 hPa 62% 0.0mm
20/10:30am N 16-20 kts 30.1°c 1007.7 hPa 63% 0.0mm
20/10:00am N 14-17 kts 29.6°c 1008.0 hPa 66% 0.0mm
20/09:30am N 14-20 kts 29.3°c 1008.2 hPa 67% 0.0mm
20/09:00am N 15-19 kts 28.9°c 1008.2 hPa 72% 60.6mm
20/08:30am N 13-18 kts 28.2°c 1008.2 hPa 70% 60.6mm
20/08:00am N 11-16 kts 28.0°c 1008.2 hPa 75% 60.6mm
20/07:30am NNE 9-10 kts 26.4°c 1008.0 hPa 80% 60.6mm
20/07:00am N 9-13 kts 26.5°c 1007.9 hPa 82% 60.6mm
20/06:30am N 7-10 kts 25.7°c 1007.7 hPa 86% 60.6mm
20/06:00am NNW 5-7 kts 24.7°c 1007.4 hPa 89% 60.6mm
20/05:30am N 4-6 kts 24.1°c 1007.1 hPa 89% 60.6mm
20/05:00am N 5-7 kts 23.9°c 1006.8 hPa 89% 60.6mm
20/04:30am N 7-10 kts 24.1°c 1006.5 hPa 89% 60.6mm
20/04:00am N 8-10 kts 24.5°c 1006.4 hPa 89% 60.6mm
20/03:30am N 10-24 kts 24.8°c 1006.2 hPa 89% 60.6mm
20/03:22am NNE 15-26 kts 24.8°c 1006.2 hPa 90% 60.6mm
20/03:19am NNE 16-26 kts 24.4°c 1006.1 hPa 90% 60.6mm
20/03:12am NNE 20-35 kts 24.3°c 1006.3 hPa 90% 60.6mm
20/03:08am NNE 22-35 kts 24.1°c 1005.8 hPa 90% 60.6mm
20/03:07am NNE 22-29 kts 24.0°c 1005.8 hPa 90% 60.6mm
20/03:00am N 18-28 kts 23.6°c 1005.9 hPa 89% 60.0mm
20/02:43am NE 17-27 kts 24.6°c 1006.1 hPa 90% 56.2mm
20/02:30am NE 21-28 kts 23.9°c 1005.9 hPa 91% 48.4mm
20/02:25am NNE 21-29 kts 24.0°c 1005.7 hPa 92% 48.2mm
20/02:20am NNE 19-29 kts 23.9°c 1006.1 hPa 91% 41.8mm
20/02:00am N 22-28 kts 23.6°c 1006.1 hPa 90% 14.2mm
20/01:51am N 16-26 kts 23.4°c 1005.8 hPa 86% 5.0mm
20/01:30am N 14-19 kts 24.2°c 1006.2 hPa 83% 1.0mm
20/01:00am NNW 14-19 kts 24.0°c 1005.9 hPa 84% 1.0mm
20/12:30am N 17-21 kts 25.2°c 1005.8 hPa 87% 1.0mm
20/12:00am N 21-25 kts 24.5°c 1005.7 hPa 86% 1.0mm
Time Wind Speed Temp Pressure Rel. Hum Rain
19/11:30pm N 16-20 kts 25.2°c 1006.1 hPa 88% 0.6mm
19/11:00pm N 15-18 kts 24.7°c 1006.3 hPa 86% 0.2mm
19/10:30pm N 13-18 kts 24.8°c 1006.6 hPa 87% 0.2mm
19/10:01pm N 15-25 kts 24.6°c 1006.5 hPa 81% 0.0mm
19/10:00pm N 14-21 kts 24.7°c 1006.5 hPa 79% 0.0mm
19/09:30pm N 7-11 kts 25.5°c 1006.7 hPa 85% 0.0mm
19/09:00pm N 10-11 kts 25.6°c 1006.5 hPa 84% 0.0mm
19/08:30pm N 10-13 kts 25.8°c 1006.4 hPa 84% 0.0mm
19/08:00pm NNE 12-14 kts 25.9°c 1006.2 hPa 82% 0.0mm
19/07:30pm NNE 14-16 kts 25.9°c 1005.9 hPa 81% 0.0mm
19/07:00pm NNE 16-18 kts 25.9°c 1005.4 hPa 80% 0.0mm
19/06:30pm NNE 15-17 kts 26.1°c 1005.3 hPa 81% 0.0mm
19/06:00pm NNE 16-18 kts 26.4°c 1005.0 hPa 77% 0.0mm
19/05:30pm NNE 15-17 kts 26.7°c 1004.8 hPa 78% 0.0mm
19/05:00pm NNE 17-20 kts 26.6°c 1004.5 hPa 76% 0.0mm
19/04:30pm NNE 15-18 kts 26.5°c 1004.1 hPa 75% 0.0mm
19/04:00pm NE 15-17 kts 27.1°c 1003.9 hPa 75% 0.0mm
19/03:30pm NE 14-17 kts 28.4°c 1004.0 hPa 72% 0.0mm
19/03:00pm NE 15-17 kts 27.7°c 1004.1 hPa 75% 0.0mm
19/02:30pm NNE 16-19 kts 26.7°c 1004.2 hPa 73% 0.0mm
19/02:00pm NNE 14-17 kts 28.5°c 1004.1 hPa 70% 0.0mm
19/01:30pm NNE 15-18 kts 28.1°c 1004.4 hPa 70% 0.0mm
19/01:00pm NNE 17-20 kts 28.9°c 1004.8 hPa 69% 0.0mm
19/12:30pm NE 15-18 kts 28.6°c 1005.0 hPa 71% 0.0mm
19/12:00pm NE 11-15 kts 28.7°c 1005.4 hPa 71% 0.0mm
19/11:30am NE 13-15 kts 27.6°c 1005.4 hPa 75% 0.0mm
19/11:00am NE 13-15 kts 27.5°c 1005.7 hPa 73% 0.0mm
19/10:30am NE 11-13 kts 27.9°c 1006.0 hPa 74% 0.0mm
19/10:00am ENE 8-9 kts 27.7°c 1006.1 hPa 75% 0.0mm
19/09:30am ENE 6-7 kts 27.5°c 1005.8 hPa 77% 0.0mm
19/09:00am NE 5-6 kts 27.1°c 1005.6 hPa 76% 0.8mm
19/08:30am CALM 0-4 kts 26.6°c 1005.8 hPa 76% 0.8mm
19/08:00am W 1-6 kts 25.9°c 1005.8 hPa 75% 0.8mm
19/07:30am SSE 3-4 kts 25.7°c 1005.6 hPa 81% 0.8mm
19/07:00am SSE 2-5 kts 25.3°c 1005.6 hPa 82% 0.8mm
19/06:30am CALM 0-3 kts 24.0°c 1005.3 hPa 87% 0.8mm
19/06:00am CALM 0-2 kts 22.7°c 1005.0 hPa 89% 0.8mm
19/05:30am S 1-4 kts 22.4°c 1004.6 hPa 89% 0.8mm
19/05:00am S 4-5 kts 22.0°c 1004.2 hPa 88% 0.6mm
19/04:30am SSW 5-6 kts 22.2°c 1003.7 hPa 88% 0.6mm
19/04:00am SSW 5-6 kts 22.4°c 1003.6 hPa 89% 0.6mm
19/03:30am SSW 5-6 kts 22.6°c 1003.7 hPa 89% 0.6mm
19/03:00am SSW 4 kts 22.5°c 1003.7 hPa 88% 0.6mm
19/02:30am WSW 4-6 kts 22.7°c 1003.8 hPa 88% 0.6mm
19/02:00am W 4-5 kts 23.0°c 1004.1 hPa 88% 0.6mm
19/01:30am W 5 kts 23.0°c 1004.3 hPa 88% 0.6mm
19/01:00am WNW 4-5 kts 23.0°c 1004.6 hPa 88% 0.6mm
19/12:30am NNW 5-6 kts 23.3°c 1004.7 hPa 87% 0.6mm
19/12:00am NW 5-6 kts 23.5°c 1004.9 hPa 87% 0.6mm